sat.trackr.live / text

‹ back to catalog

STARLINK-11158 [DTC]

NORAD 60403 · 2024-141F

PAYLOAD ACTIVE UNKNOWN

§ Identity

Operator
Country
US
Launch date
2024-08-10
Launch site
AFETR
Launch vehicle
Mass (kg)
RCS (m²)

Purposes: comms

External: N2YO · Heavens-Above · Gunter

§ Orbital elements

Epoch: 2026-09-21T06:05:19.478688Z

Period
91.74 min
Inclination
53.1613°
Eccentricity
0.0001498
Mean motion
15.69725319 rev/d
Perigee alt
358.7 km
Apogee alt
360.7 km
Semi-major
6,737.8 km
B*
2.2822e-5
RAAN
202.5519°
Arg perigee
88.9348°
Mean anomaly
271.1842°
Rev number
12,240

§ Raw data

STARLINK-11158 [DTC]1 60403U 24141F   26264.25369767  .00002178  00000+0  22822-4 0  99972 60403  53.1613 202.5519 0001498  88.9348 271.1842 15.69725319122402

JSON: /api/v1/satellites/60403 · /tle

For live sub-satellite position, see the globe view (requires WebGL).

§ Visibility from observer

Set your observer location to see the next 7 days of passes ≥ 10°. The values pass through the URL so the page stays shareable.

No JS? Fill the form by hand. The geolocation button needs JavaScript.